User: anonymous   Login
Location: Caltech
(34.1382°N, 118.1253°W)
Time: 12:36:56
(UTC-08:00)
Language:

CZ-4B DEB - Orbit

View from above orbital plane
View from above orbital plane
View from above satellite
View from above satellite

Ground track
Ground track

The orbit data is extracted from the following two-line orbital elements,

1 27433U 02024D   16036.86309940 +.00000154 +00000-0 +10819-3 0  9994
2 27433 098.9056 005.6117 0015157 018.8507 341.3223 14.12024079706995
Epoch (UTC): 05 February 2016 20:42:51
Eccentricity: 0.0015157
inclination: 98.9056°
perigee height: 841 km
apogee height: 863 km
right ascension of ascending node: 5.6117°
argument of perigee: 18.8507°
revolutions per day: 14.12024079
mean anomaly at epoch: 341.3223°
orbit number at epoch: 70699

The dashed part of the orbit path shows where the satellite is in the earth's shadow,  

DLR